Saint Regis, MT

6:01 PM MST on December 05, 2016 (GMT -0700)
Mullan Pass

Weather History for KMLP - June, 2013

Change the Weather History Date:

Friday, June 21, 2013

  Actual Average (K3TH) Record (K3TH)
Temperature  
Mean Temperature 40 °F -  
Max Temperature 48 °F 71 °F 89 °F (2001)
Min Temperature 34 °F 51 °F 46 °F (1997)
Degree Days  
Heating Degree Days 25    
Moisture  
Dew Point 38 °F    
Average Humidity 95    
Maximum Humidity 100    
Minimum Humidity 80    
Precipitation  
Precipitation 0.09 in - - ()
Sea Level Pressure  
Sea Level Pressure 30.07 in    
Wind  
Wind Speed 3 mph (WNW)    
Max Wind Speed 8 mph    
Max Gust Speed -    
Visibility 5 miles    
Events Fog , Rain    
Averages and records for this station are not official NWS values.
T = Trace of Precipitation, MM = Missing Value Source: NWS Daily Summary

Daily Weather History Graph

Daily Weather History Graph

Search for Another Location

Airport or City:

Trip Planner

Search our weather history database for the weather conditions in past years. The results will help you decide how hot, cold, wet, or windy it might be!

Date:

Astronomy

Jun. 21, 2013 Rise Set
Actual Time 4:45 AM PDT 8:43 PM PDT
Civil Twilight 4:05 AM PDT 9:24 PM PDT
Nautical Twilight 3:09 AM PDT 10:20 PM PDT
Astronomical Twilight 1:40 AM PDT 11:48 PM PDT
Moon 6:53 PM PDT (6/21) 3:11 AM PDT (6/21)
Length of Visible Light 17h 18m
Length of Day
15h 57m
Waxing Gibbous, 96% of the Moon is Illuminated
Jun 21
Waxing Gibbous
Jun 23
Full
Jun 29
Last Quarter
Jul 8
New
Jul 15
First Quarter

Hourly Weather History & Observations

Time (PDT) Temp. Windchill Dew Point Humidity Pressure Visibility Wind Dir Wind Speed Gust Speed Precip Events Conditions
12:06 AM 35.6 °F 31.7 °F 35.6 °F 100% 30.07 in 1.0 mi Variable 4.6 mph - N/A   Mist
12:13 AM 35.6 °F 31.7 °F 35.6 °F 100% 30.07 in 0.5 mi SW 4.6 mph - N/A Fog Fog
12:44 AM 35.6 °F 31.7 °F 35.6 °F 100% 30.06 in 1.5 mi Variable 4.6 mph - N/A   Overcast
12:48 AM 35.6 °F 30.7 °F 35.6 °F 100% 30.06 in 4.0 mi WSW 5.8 mph - N/A   Overcast
12:53 AM 35.1 °F 31.0 °F 35.1 °F 100% 29.96 in 9.0 mi Variable 4.6 mph - N/A   Overcast
1:18 AM 35.6 °F 31.7 °F 35.6 °F 100% 30.06 in 2.5 mi Variable 4.6 mph - N/A   Overcast
1:23 AM 35.6 °F 31.7 °F 35.6 °F 100% 30.06 in 1.2 mi WSW 4.6 mph - N/A   Overcast
1:31 AM 35.6 °F 30.7 °F 35.6 °F 100% 30.06 in 2.0 mi SW 5.8 mph - N/A   Overcast
1:38 AM 35.6 °F 31.7 °F 35.6 °F 100% 30.06 in 7.0 mi SW 4.6 mph - N/A   Overcast
1:53 AM 35.1 °F 30.1 °F 35.1 °F 100% 29.96 in - SW 5.8 mph - N/A   Overcast
2:53 AM 35.1 °F - 35.1 °F 100% 29.96 in - Calm Calm - N/A   Overcast
3:53 AM 34.0 °F - 34.0 °F 100% 29.96 in - Calm Calm - 0.01 in Rain Light Rain
4:53 AM 34.0 °F 29.8 °F 34.0 °F 100% 29.96 in - SSW 4.6 mph - 0.01 in Rain Light Rain
5:53 AM 35.1 °F - 35.1 °F 100% 29.97 in - Calm Calm - 0.00 in   Overcast
6:53 AM 35.1 °F 32.2 °F 35.1 °F 100% 29.99 in - SW 3.5 mph - N/A   Overcast
7:53 AM 35.1 °F - 35.1 °F 100% 30.01 in - Calm Calm - 0.00 in Rain Light Rain
8:53 AM 36.0 °F 32.1 °F 36.0 °F 100% 30.01 in - South 4.6 mph - 0.01 in Rain Light Rain
9:29 AM 37.4 °F 34.9 °F 37.4 °F 100% 30.11 in - Variable 3.5 mph - 0.00 in   Overcast
9:53 AM 37.9 °F - 37.9 °F 100% 30.00 in 9.0 mi Calm Calm - 0.00 in   Overcast
9:59 AM 39.2 °F 35.9 °F 37.4 °F 93% 30.11 in 9.0 mi Variable 4.6 mph - N/A   Overcast
10:06 AM 39.2 °F - 37.4 °F 93% 30.11 in 10.0 mi Calm Calm - N/A   Overcast
10:10 AM 39.2 °F - 39.2 °F 100% 30.10 in 1.5 mi Calm Calm - N/A   Overcast
10:16 AM 37.4 °F - 37.4 °F 100% 30.11 in 0.8 mi Calm Calm - N/A   Overcast
10:32 AM 39.2 °F - 37.4 °F 93% 30.11 in 0.2 mi Calm Calm - N/A Fog Fog
10:39 AM 37.4 °F - 37.4 °F 100% 30.11 in 0.8 mi Calm Calm - 0.00 in Rain Light Rain
10:46 AM 39.2 °F 37.0 °F 37.4 °F 93% 30.11 in 1.0 mi Variable 3.5 mph - 0.00 in Rain Light Rain
10:53 AM 39.0 °F 36.8 °F 39.0 °F 100% 30.00 in 1.0 mi Variable 3.5 mph - 0.00 in Rain Light Rain
10:57 AM 41.0 °F - 39.2 °F 93% 30.11 in 2.0 mi Calm Calm - 0.00 in   Overcast
11:04 AM 39.2 °F 37.0 °F 39.2 °F 100% 30.11 in 10.0 mi Variable 3.5 mph - 0.00 in   Overcast
11:14 AM 39.2 °F - 37.4 °F 93% 30.11 in 0.2 mi Calm Calm - 0.01 in Fog Fog
11:34 AM 41.0 °F - 39.2 °F 93% 30.11 in 1.0 mi Calm Calm - 0.01 in   Overcast
11:36 AM 41.0 °F - 39.2 °F 93% 30.11 in 4.0 mi Calm Calm - 0.01 in   Overcast
11:48 AM 41.0 °F - 39.2 °F 93% 30.11 in 1.5 mi Calm Calm - 0.01 in Rain Light Rain
11:53 AM 41.0 °F 39.0 °F 39.9 °F 96% 29.99 in 1.0 mi Variable 3.5 mph - 0.01 in Rain Light Rain
12:08 PM 39.2 °F - 39.2 °F 100% 30.11 in 0.5 mi Calm Calm - 0.01 in Fog , Rain Rain
12:12 PM 41.0 °F 39.0 °F 37.4 °F 87% 30.11 in 1.8 mi Variable 3.5 mph - 0.01 in Rain Light Rain
12:15 PM 42.8 °F - 39.2 °F 87% 30.11 in 8.0 mi Calm Calm - 0.01 in Rain Light Rain
12:26 PM 42.8 °F 41.1 °F 42.8 °F 100% 30.12 in 10.0 mi NNW 3.5 mph - 0.01 in   Overcast
12:31 PM 42.8 °F 40.1 °F 39.2 °F 87% 30.12 in 10.0 mi WNW 4.6 mph - 0.01 in Rain Light Rain
12:53 PM 43.0 °F - 39.9 °F 89% 29.99 in 10.0 mi Calm Calm - 0.02 in Rain Light Rain
1:53 PM 41.0 °F - 39.0 °F 93% 30.01 in 5.0 mi Calm Calm - 0.02 in Rain Light Rain
2:39 PM 42.8 °F - 39.2 °F 87% 30.14 in 10.0 mi Calm Calm - 0.01 in Rain Light Rain
2:45 PM 42.8 °F 40.1 °F 41.0 °F 93% 30.14 in 10.0 mi NW 4.6 mph - 0.01 in Rain Light Rain
2:47 PM 42.8 °F - 39.2 °F 87% 30.14 in 8.0 mi Calm Calm - 0.01 in Rain Light Rain
2:53 PM 42.1 °F 39.2 °F 42.1 °F 100% 30.01 in 1.8 mi Variable 4.6 mph - 0.01 in Rain Light Rain
2:57 PM 42.8 °F 41.1 °F 42.8 °F 100% 30.14 in 1.0 mi Variable 3.5 mph - 0.00 in Rain Light Rain
3:05 PM 42.8 °F 39.3 °F 42.8 °F 100% 30.14 in 2.0 mi Variable 5.8 mph - 0.00 in Rain Light Rain
3:12 PM 44.6 °F 40.7 °F 42.8 °F 93% 30.13 in 9.0 mi Variable 6.9 mph - 0.00 in   Overcast
3:21 PM 42.8 °F 38.0 °F 42.8 °F 100% 30.14 in 5.0 mi NNW 8.1 mph - 0.00 in   Mostly Cloudy
3:43 PM 42.8 °F 39.3 °F 39.2 °F 87% 30.14 in 10.0 mi NW 5.8 mph - 0.00 in   Mostly Cloudy
3:53 PM 42.1 °F 38.4 °F 39.9 °F 92% 30.03 in 10.0 mi NW 5.8 mph - 0.00 in   Overcast
4:53 PM 45.0 °F 42.6 °F 39.9 °F 82% 30.01 in 10.0 mi NNW 4.6 mph - N/A   Partly Cloudy
5:53 PM 46.9 °F - 41.0 °F 80% 29.99 in 10.0 mi Variable 4.6 mph - N/A   Clear
6:53 PM 46.9 °F - 41.0 °F 80% 30.00 in 10.0 mi NNW 6.9 mph - N/A   Clear
7:28 PM 46.4 °F 44.3 °F 41.0 °F 81% 30.13 in 10.0 mi Variable 4.6 mph - N/A   Mostly Cloudy
7:53 PM 44.1 °F 41.5 °F 39.9 °F 85% 30.00 in 10.0 mi NNW 4.6 mph - N/A   Mostly Cloudy
8:01 PM 42.8 °F 39.3 °F 39.2 °F 87% 30.14 in 10.0 mi NW 5.8 mph - N/A   Scattered Clouds
8:25 PM 41.0 °F 37.1 °F 39.2 °F 93% 30.14 in 6.0 mi NNW 5.8 mph - N/A   Mostly Cloudy
8:34 PM 41.0 °F 37.1 °F 39.2 °F 93% 30.14 in 1.8 mi NNW 5.8 mph - N/A   Mostly Cloudy
8:40 PM 41.0 °F 37.1 °F 39.2 °F 93% 30.14 in 0.8 mi NNW 5.8 mph - N/A   Mist
8:53 PM 41.0 °F 38.0 °F 39.9 °F 96% 30.02 in 0.2 mi NNW 4.6 mph - N/A Fog Fog
9:41 PM 39.2 °F 35.9 °F 39.2 °F 100% 30.15 in 1.0 mi NNW 4.6 mph - N/A   Mist
9:43 PM 39.2 °F 35.9 °F 39.2 °F 100% 30.15 in 3.0 mi NNW 4.6 mph - N/A   Mostly Cloudy
9:53 PM 39.0 °F 36.8 °F 39.0 °F 100% 30.03 in - NNW 3.5 mph - N/A   Partly Cloudy
10:53 PM 39.0 °F - 37.0 °F 93% 30.02 in - Calm Calm - N/A   Clear
11:45 PM 39.2 °F 35.9 °F 39.2 °F 100% 30.13 in - NW 4.6 mph - N/A   Scattered Clouds
11:53 PM 39.0 °F 36.8 °F 39.0 °F 100% 30.00 in - NW 3.5 mph - N/A   Mostly Cloudy